[Iaude] MPEC L139: 2024 LO4 [a=1.15,e=0.14,i=6.4,H=27.6]
    mpec at cfa.harvard.edu 
    mpec at cfa.harvard.edu
       
    Fri Jun 14 13:57:50 EDT 2024
    
    
  
M.P.E.C. 2024-L139                                Issued 2024 June 14, 17:56 UT
     The Minor Planet Electronic Circulars contain information on unusual
         minor planets, routine data on comets and natural satellites,
         and occasional editorial announcements.  They are published
    on behalf of Division F of the International Astronomical Union by the
          Minor Planet Center, Smithsonian Astrophysical Observatory,
                          Cambridge, MA 02138, U.S.A.
			  
             Prepared using the Tamkin Foundation Computer Network
                              MPC at CFA.HARVARD.EDU
            URL https://www.minorplanetcenter.net/    ISSN 1523-6714
                                    2024 LO4                                    
Observations:
     K24L04O KC2024 06 10.36997615 22 52.424+04 36 49.49         21.12GVEL139F51
     K24L04O* C2024 06 13.44852716 01 03.695+09 22 36.11         21.52wXEL139F52
     K24L04O  C2024 06 13.46112816 01 10.245+09 23 28.04         21.70wXEL139F52
     K24L04O  C2024 06 13.47374816 01 16.899+09 24 20.53         21.52wXEL139F52
     K24L04O  C2024 06 13.52701316 01 45.574+09 27 57.39         21.13GVEL139F52
     K24L04O  C2024 06 13.52766516 01 45.896+09 27 59.97         21.93GVEL139F52
     K24L04O 6C2024 06 13.91227416 05 50.830+09 53 22.21         22.5 GVEL139Z84
     K24L04O 6C2024 06 13.94360616 06 06.315+09 55 27.12         21.5 GVEL139Z84
     K24L04O 6C2024 06 13.97441216 06 21.446+09 57 28.12         21.7 GVEL139Z84
     K24L04O  C2024 06 14.38148416 10 12.104+10 24 23.38         22.07GVEL139F52
     K24L04O  C2024 06 14.38231016 10 12.451+10 24 26.25         21.94GVEL139F52
Observer details:
F51 Pan-STARRS 1, Haleakala.  Observers J. Herman, T. Lowe, P. Minguez, A.
    Schultz, I. Smith.  Measurers K. Chambers, T. de Boer, J. Fairlamb, H.
    Gao, M. Huber, C.-C. Lin, E. Magnier, Y. Ramanjooloo, R. Wainscoat, R.
    Weryk.  1.8-m Ritchey-Chretien + CCD.
F52 Pan-STARRS 2, Haleakala.  Observers J. Herman, T. Lowe, P. Minguez, A.
    Schultz, I. Smith.  Measurers K. Chambers, T. de Boer, J. Fairlamb, H.
    Gao, M. Huber, C.-C. Lin, E. Magnier, Y. Ramanjooloo, R. Wainscoat, R.
    Weryk.  1.8-m Ritchey-Chretien + CCD.
Z84 Calar Alto-Schmidt.  Observers M. Micheli, R. Kresken.  Measurers R.
    Kresken, M. Micheli, F. Ocana, L. Conversi.  0.8-m f/3 Schmidt + CCD.
Orbital elements:
2024 LO4                                                 Earth MOID = 0.0111 AU
Epoch 2024 Mar. 31.0 TT = JDT 2460400.5                 MPC                     
M 341.67848              (2000.0)            P               Q                  
n   0.79976551     Peri.  314.98413     -0.87147215     +0.47855163             
a   1.1494611      Node   253.88463     -0.41265407     -0.83375870             
e   0.1372016      Incl.    6.41585     -0.26505265     -0.27538113             
P   1.23           H   27.64          G   0.15           U   7                  
Residuals in seconds of arc
240610 F51  0.0   0.0     240613 F52  0.4+  0.1+    240613 Z84  0.1-  0.2-
240613 F52  0.3+  0.2+    240613 F52  0.1-  0.1+    240614 F52  0.2+  0.2+
240613 F52  0.2-  0.3-    240613 Z84  0.1-  0.1+    240614 F52  0.2-  0.0
240613 F52  0.0   0.1+    240613 Z84  0.1+  0.1-
Ephemeris:
2024 LO4                 a,e,i = 1.15, 0.14, 6                   q = 0.9918
Date    TT    R. A. (2000) Decl.     Delta      r    Elong.  Phase     V
2024 05 15    07 48 19.5 -28 46 49   0.05493 1.0017    78.8    98.1    24.9
...
2024 05 30    10 41 14.4 -26 26 01   0.02332 1.0189   102.3    76.4    22.2
...
2024 06 07    14 20 02.2 -03 51 41   0.02196 1.0310   136.8    42.4    21.1
...
2024 06 13    15 56 28.1 +08 50 18   0.03259 1.0412   141.2    37.7    21.8
2024 06 14    16 06 37.9 +10 01 01   0.03482 1.0429   141.0    37.8    22.0
2024 06 15    16 15 39.7 +11 01 00   0.03714 1.0447   140.7    38.0    22.1
...
2024 06 21    16 53 28.8 +14 31 37   0.05214 1.0560   138.8    39.3    22.9
...
2024 06 29    17 20 47.5 +15 50 49   0.07391 1.0720   137.2    40.1    23.7
...
2024 07 14    17 48 03.7 +14 24 38   0.1186  1.1043   135.5    40.1    24.8
A. U. Tomatic                (C) Copyright 2024 MPC           M.P.E.C. 2024-L139
    
    
More information about the Iaude
mailing list